When you browse on this site, cookies collect data to enhance your experience and personalize the content and advertising you see.
Visit our Privacy Policy to learn more. By continuing to use the site, you agree to this use of cookies and data.
  • In Österreich
  • Länderverzeichnis
  • Für 7 Tage
  • Wassertemperatur
  • Wetterkarte
  • News
  • Widgets
  • user-avatar
    Anmelden

    Stündliche Wetter Silistra

    Heute, 15 Oktober, Dienstag

    Zeit Temperatur Niederschläge Wind Luftdruck Luftfeuchtigkeit
    00:00 +15°C° 0 mm 2 m/S 760 mmHg 78%
    01:00 +15°C° 0 mm 2 m/S 760 mmHg 78%
    02:00 +15°C° 0 mm 2 m/S 760 mmHg 77%
    03:00 +14°C° 0 mm 2 m/S 760 mmHg 78%
    04:00 +14°C° 0 mm 2 m/S 760 mmHg 78%
    05:00 +14°C° 0 mm 2 m/S 759 mmHg 78%
    06:00 +14°C° 0 mm 2 m/S 760 mmHg 75%
    07:00 +15°C° 0 mm 2 m/S 760 mmHg 73%
    08:00 +16°C° 0 mm 2 m/S 760 mmHg 70%
    09:00 +18°C° 0 mm 2 m/S 760 mmHg 60%
    10:00 +20°C° 0 mm 2 m/S 760 mmHg 50%
    11:00 +24°C° 0 mm 2 m/S 759 mmHg 40%
    12:00 +25°C° 0 mm 2 m/S 759 mmHg 37%
    13:00 +26°C° 0 mm 2 m/S 759 mmHg 33%
    14:00 +27°C° 0 mm 2 m/S 759 mmHg 29%
    15:00 +26°C° 0 mm 3 m/S 758 mmHg 34%
    16:00 +25°C° 0 mm 3 m/S 758 mmHg 40%
    17:00 +22°C° 0 mm 3 m/S 758 mmHg 46%
    18:00 +21°C° 0 mm 3 m/S 758 mmHg 56%
    19:00 +19°C° 0 mm 3 m/S 758 mmHg 67%
    20:00 +17°C° 0 mm 4 m/S 759 mmHg 77%
    21:00 +16°C° 0 mm 3 m/S 759 mmHg 81%
    22:00 +16°C° 0 mm 3 m/S 758 mmHg 85%
    23:00 +14°C° 0 mm 3 m/S 758 mmHg 88%

    Morgen, 16 Oktober, Mittwoch

    Zeit Temperatur Niederschläge Wind Luftdruck Luftfeuchtigkeit
    00:00 +14°C° 0 mm 3 m/S 758 mmHg 89%
    01:00 +14°C° 0 mm 2 m/S 758 mmHg 90%
    02:00 +14°C° 0 mm 2 m/S 758 mmHg 91%
    03:00 +14°C° 0 mm 2 m/S 758 mmHg 91%
    04:00 +14°C° 0 mm 2 m/S 758 mmHg 91%
    05:00 +13°C° 0 mm 2 m/S 758 mmHg 91%
    06:00 +14°C° 0 mm 2 m/S 758 mmHg 88%
    07:00 +15°C° 0 mm 2 m/S 758 mmHg 84%
    08:00 +15°C° 0 mm 2 m/S 759 mmHg 80%
    09:00 +18°C° 0 mm 2 m/S 759 mmHg 68%
    10:00 +20°C° 0 mm 2 m/S 759 mmHg 56%
    11:00 +23°C° 0 mm 2 m/S 759 mmHg 44%
    12:00 +25°C° 0 mm 2 m/S 758 mmHg 39%
    13:00 +26°C° 0 mm 2 m/S 758 mmHg 35%
    14:00 +27°C° 0 mm 2 m/S 758 mmHg 30%
    15:00 +26°C° 0 mm 2 m/S 758 mmHg 33%
    16:00 +25°C° 0 mm 2 m/S 757 mmHg 36%
    17:00 +24°C° 0 mm 3 m/S 757 mmHg 39%
    18:00 +21°C° 0 mm 3 m/S 757 mmHg 48%
    19:00 +19°C° 0 mm 3 m/S 758 mmHg 56%
    20:00 +17°C° 0 mm 3 m/S 758 mmHg 65%
    21:00 +17°C° 0 mm 3 m/S 758 mmHg 68%
    22:00 +16°C° 0 mm 2 m/S 758 mmHg 71%
    23:00 +16°C° 0 mm 2 m/S 759 mmHg 73%

    übermorgen, 17 Oktober, Donnerstag

    Zeit Temperatur Niederschläge Wind Luftdruck Luftfeuchtigkeit
    00:00 +15°C° 0 mm 2 m/S 759 mmHg 74%
    01:00 +15°C° 0 mm 1 m/S 758 mmHg 75%
    02:00 +14°C° 0 mm 1 m/S 758 mmHg 75%
    03:00 +14°C° 0 mm 1 m/S 758 mmHg 76%
    04:00 +14°C° 0 mm 1 m/S 758 mmHg 76%
    05:00 +14°C° 0 mm 1 m/S 758 mmHg 76%
    06:00 +14°C° 0 mm 1 m/S 758 mmHg 73%
    07:00 +15°C° 0 mm 1 m/S 759 mmHg 69%
    08:00 +16°C° 0 mm 1 m/S 759 mmHg 65%
    09:00 +19°C° 0 mm 1 m/S 759 mmHg 56%
    10:00 +21°C° 0 mm 1 m/S 759 mmHg 47%
    11:00 +24°C° 0 mm 1 m/S 759 mmHg 38%
    12:00 +25°C° 0 mm 1 m/S 759 mmHg 34%
    13:00 +26°C° 0 mm 1 m/S 758 mmHg 30%
    14:00 +27°C° 0 mm 1 m/S 758 mmHg 27%
    15:00 +26°C° 0 mm 1 m/S 758 mmHg 29%
    16:00 +25°C° 0 mm 1 m/S 758 mmHg 31%
    17:00 +24°C° 0 mm 1 m/S 758 mmHg 33%
    18:00 +22°C° 0 mm 1 m/S 758 mmHg 37%
    19:00 +21°C° 0 mm 1 m/S 758 mmHg 41%
    20:00 +19°C° 0 mm 2 m/S 758 mmHg 45%
    21:00 +19°C° 0 mm 1 m/S 759 mmHg 48%
    22:00 +19°C° 0 mm 1 m/S 759 mmHg 52%
    23:00 +18°C° 0 mm 1 m/S 759 mmHg 55%

    18 Oktober, Freitag

    Zeit Temperatur Niederschläge Wind Luftdruck Luftfeuchtigkeit
    00:00 +18°C° 0 mm 1 m/S 759 mmHg 56%
    01:00 +16°C° 0 mm 1 m/S 759 mmHg 57%
    02:00 +16°C° 0 mm 1 m/S 759 mmHg 59%
    03:00 +16°C° 0 mm 1 m/S 759 mmHg 60%
    04:00 +14°C° 0 mm 0 m/S 759 mmHg 61%
    05:00 +14°C° 0 mm 0 m/S 759 mmHg 62%
    06:00 +15°C° 0 mm 0 m/S 759 mmHg 59%
    07:00 +16°C° 0 mm 1 m/S 759 mmHg 57%
    08:00 +18°C° 0 mm 1 m/S 759 mmHg 54%
    09:00 +20°C° 0 mm 1 m/S 759 mmHg 49%
    10:00 +22°C° 0 mm 1 m/S 759 mmHg 43%
    11:00 +24°C° 0 mm 2 m/S 760 mmHg 37%
    12:00 +24°C° 0 mm 2 m/S 759 mmHg 34%
    13:00 +25°C° 0 mm 2 m/S 759 mmHg 31%
    14:00 +26°C° 0 mm 2 m/S 759 mmHg 28%
    15:00 +25°C° 0 mm 2 m/S 759 mmHg 30%
    16:00 +24°C° 0 mm 1 m/S 759 mmHg 32%
    17:00 +23°C° 0 mm 1 m/S 758 mmHg 35%
    18:00 +21°C° 0 mm 2 m/S 759 mmHg 40%
    19:00 +19°C° 0 mm 2 m/S 759 mmHg 46%
    20:00 +18°C° 0 mm 2 m/S 759 mmHg 51%
    21:00 +18°C° 0 mm 2 m/S 759 mmHg 55%
    22:00 +17°C° 0 mm 2 m/S 759 mmHg 59%
    23:00 +16°C° 0 mm 1 m/S 759 mmHg 63%

    19 Oktober, Samstag

    Zeit Temperatur Niederschläge Wind Luftdruck Luftfeuchtigkeit
    00:00 +16°C° 0 mm 1 m/S 759 mmHg 64%
    01:00 +16°C° 0 mm 1 m/S 759 mmHg 65%
    02:00 +15°C° 0 mm 1 m/S 759 mmHg 66%
    03:00 +15°C° 0 mm 1 m/S 759 mmHg 66%
    04:00 +15°C° 0 mm 1 m/S 759 mmHg 67%
    05:00 +14°C° 0 mm 1 m/S 760 mmHg 68%
    06:00 +15°C° 0 mm 1 m/S 760 mmHg 67%
    07:00 +16°C° 0 mm 1 m/S 760 mmHg 65%
    08:00 +16°C° 0 mm 1 m/S 760 mmHg 63%
    09:00 +19°C° 0 mm 1 m/S 760 mmHg 55%
    10:00 +20°C° 0 mm 2 m/S 760 mmHg 48%
    11:00 +23°C° 0 mm 2 m/S 760 mmHg 40%
    12:00 +24°C° 0 mm 2 m/S 760 mmHg 37%
    13:00 +25°C° 0 mm 2 m/S 760 mmHg 34%
    14:00 +26°C° 0 mm 3 m/S 759 mmHg 31%
    15:00 +25°C° 0 mm 2 m/S 759 mmHg 34%
    16:00 +24°C° 0 mm 2 m/S 759 mmHg 37%
    17:00 +23°C° 0 mm 2 m/S 759 mmHg 40%
    18:00 +20°C° 0 mm 3 m/S 759 mmHg 48%
    19:00 +19°C° 0 mm 3 m/S 760 mmHg 56%
    20:00 +17°C° 0 mm 3 m/S 760 mmHg 64%
    21:00 +16°C° 0 mm 3 m/S 760 mmHg 71%
    22:00 +16°C° 0 mm 3 m/S 760 mmHg 77%
    23:00 +15°C° 0 mm 2 m/S 760 mmHg 84%

    20 Oktober, Sonntag

    Zeit Temperatur Niederschläge Wind Luftdruck Luftfeuchtigkeit
    00:00 +15°C° 0 mm 2 m/S 760 mmHg 86%
    01:00 +14°C° 0 mm 2 m/S 760 mmHg 87%
    02:00 +14°C° 0 mm 2 m/S 760 mmHg 89%
    03:00 +14°C° 0 mm 2 m/S 760 mmHg 89%
    04:00 +14°C° 0 mm 2 m/S 760 mmHg 89%
    05:00 +13°C° 0 mm 1 m/S 760 mmHg 89%
    06:00 +14°C° 0 mm 1 m/S 760 mmHg 86%
    07:00 +15°C° 0 mm 2 m/S 760 mmHg 83%
    08:00 +15°C° 0 mm 2 m/S 760 mmHg 79%
    09:00 +17°C° 0 mm 2 m/S 760 mmHg 69%
    10:00 +20°C° 0 mm 2 m/S 761 mmHg 58%
    11:00 +23°C° 0 mm 2 m/S 761 mmHg 47%
    12:00 +24°C° 0 mm 3 m/S 760 mmHg 42%
    13:00 +25°C° 0 mm 3 m/S 760 mmHg 37%
    14:00 +26°C° 0 mm 3 m/S 760 mmHg 32%
    15:00 +25°C° 0 mm 3 m/S 760 mmHg 35%
    16:00 +24°C° 0 mm 3 m/S 760 mmHg 37%
    17:00 +22°C° 0 mm 3 m/S 759 mmHg 40%
    18:00 +20°C° 0 mm 3 m/S 760 mmHg 47%
    19:00 +19°C° 0 mm 3 m/S 760 mmHg 53%
    20:00 +17°C° 0 mm 3 m/S 760 mmHg 59%
    21:00 +17°C° 0 mm 3 m/S 760 mmHg 62%
    22:00 +16°C° 0 mm 3 m/S 761 mmHg 65%
    23:00 +16°C° 0 mm 3 m/S 761 mmHg 67%
    Mehr zeigen